Weather History for Valdosta, GA

Change the Weather History Date:

Friday, October 28, 2011

  Actual Average Record
Temperature  
Mean Temperature 68 °F -  
Max Temperature 81 °F 75 °F 87 °F (2002)
Min Temperature 57 °F 55 °F 39 °F (2008)
Cooling Degree Days 4    
Growing Degree Days 18 (Base 50)    
Moisture  
Dew Point 60 °F    
Average Humidity 82    
Maximum Humidity 100    
Minimum Humidity 47    
Precipitation  
Precipitation 0.00 in - - ()
Sea Level Pressure  
Sea Level Pressure 29.93 in    
Wind  
Wind Speed 1 mph (SSW)    
Max Wind Speed 8 mph    
Max Gust Speed -    
Visibility 10 miles    
Events Rain    
Averages and records for this station are not official NWS values.
T = Trace of Precipitation, MM = Missing Value Source: NWS Daily Summary

Daily Weather History Graph

Daily Weather History Graph

Search for Another Location

Airport:

Trip Planner

Search our weather history database for the weather conditions in past years. The results will help you decide how hot, cold, wet, or windy it might be!

Date:

Astronomy

Oct. 28, 2011 Rise Set
Actual Time 7:44 AM EDT 6:48 PM EDT
Civil Twilight 7:19 AM EDT 7:12 PM EDT
Nautical Twilight 6:51 AM EDT 7:41 PM EDT
Astronomical Twilight 6:23 AM EDT 8:09 PM EDT
Moon 9:47 AM EDT 8:21 PM EDT
Length of Visible Light 11h 53m
Length of Day
11h 03m
Waxing Crescent, 5% of the Moon is Illuminated
Oct 28
Waxing Crescent
Nov 2
First Quarter
Nov 10
Full
Nov 18
Last Quarter
Nov 25
New

Hourly Weather History & Observations

Time (EDT) Temp. Heat Index Dew Point Humidity Pressure Visibility Wind Dir Wind Speed Gust Speed Precip Events Conditions
12:55 AM 62.1 °F - 59.0 °F 90% 29.93 in 10.0 mi Calm Calm - N/A   Overcast
1:55 AM 61.5 °F - 59.2 °F 92% 29.93 in 10.0 mi Calm Calm - N/A   Overcast
2:55 AM 59.4 °F - 57.2 °F 93% 29.93 in 10.0 mi South 3.5 mph - N/A   Mostly Cloudy
3:55 AM 59.9 °F - 58.5 °F 95% 29.93 in 10.0 mi Calm Calm - N/A   Partly Cloudy
4:43 AM 59.0 °F - 59.0 °F 100% 29.94 in 8.0 mi Calm Calm - N/A   Partly Cloudy
4:45 AM 59.0 °F - 59.0 °F 100% 29.94 in 9.0 mi Calm Calm - N/A   Partly Cloudy
4:55 AM 58.8 °F - 57.7 °F 96% 29.94 in 10.0 mi Calm Calm - N/A   Partly Cloudy
5:55 AM 58.1 °F - 57.0 °F 96% 29.94 in 10.0 mi Calm Calm - N/A   Partly Cloudy
6:55 AM 57.2 °F - 56.3 °F 97% 29.94 in 10.0 mi Calm Calm - N/A   Mostly Cloudy
7:55 AM 57.6 °F - 56.7 °F 97% 29.96 in 10.0 mi Calm Calm - N/A   Mostly Cloudy
8:55 AM 57.9 °F - 56.5 °F 95% 29.98 in 10.0 mi Calm Calm - N/A   Clear
9:49 AM 64.4 °F - 62.6 °F 94% 29.98 in 10.0 mi Calm Calm - N/A Rain Light Rain
9:52 AM 64.4 °F - 62.6 °F 94% 29.98 in 10.0 mi Calm Calm - N/A   Mostly Cloudy
9:55 AM 64.2 °F - 62.4 °F 94% 29.98 in 10.0 mi Calm Calm - 0.00 in   Mostly Cloudy
9:57 AM 64.4 °F - 62.6 °F 94% 29.98 in 10.0 mi Calm Calm - N/A Rain Light Rain
9:59 AM 64.4 °F - 62.6 °F 94% 29.98 in 10.0 mi Calm Calm - N/A   Mostly Cloudy
10:55 AM 70.3 °F - 61.9 °F 74% 29.98 in 10.0 mi Calm Calm - 0.00 in   Scattered Clouds
11:55 AM 77.7 °F - 60.3 °F 55% 29.96 in 10.0 mi SSE 8.1 mph - N/A   Clear
12:55 PM 79.5 °F - 58.5 °F 48% 29.94 in 10.0 mi Variable 6.9 mph - N/A   Partly Cloudy
1:55 PM 80.6 °F 81.1 °F 59.0 °F 48% 29.91 in 10.0 mi Variable 5.8 mph - N/A   Mostly Cloudy
2:55 PM 80.2 °F 80.7 °F 58.3 °F 47% 29.90 in 10.0 mi WSW 6.9 mph - N/A   Scattered Clouds
3:55 PM 80.8 °F 81.4 °F 60.3 °F 49% 29.89 in 10.0 mi SW 4.6 mph - N/A   Partly Cloudy
4:55 PM 80.6 °F 81.5 °F 61.0 °F 51% 29.88 in 10.0 mi SW 8.1 mph - N/A   Scattered Clouds
5:55 PM 78.3 °F - 61.5 °F 56% 29.89 in 10.0 mi SSW 6.9 mph - N/A   Partly Cloudy
6:55 PM 73.0 °F - 62.6 °F 70% 29.89 in 10.0 mi Calm Calm - N/A   Partly Cloudy
7:55 PM 68.5 °F - 62.6 °F 81% 29.89 in 10.0 mi Calm Calm - N/A   Clear
8:55 PM 67.1 °F - 62.6 °F 85% 29.90 in 10.0 mi Calm Calm - N/A   Partly Cloudy
9:55 PM 65.5 °F - 61.7 °F 88% 29.91 in 10.0 mi SSW 4.6 mph - N/A   Clear
10:55 PM 66.9 °F - 62.6 °F 86% 29.91 in 10.0 mi South 4.6 mph - N/A   Mostly Cloudy
11:55 PM 65.1 °F - 60.8 °F 86% 29.90 in 10.0 mi SSW 4.6 mph - N/A   Clear